Miscellaneous Local Product
Issued by NWS North Platte, NE

Home | Current Version | Previous Version | Graphics & Text | Print | Product List | Glossary On
Versions: 1 2 3 4 5 6 7 8 9 10 11 12 13 14 15 16 17 18 19 20 21 22 23 24 25 26 27 28 29 30 31 32 33 34 35 36 37 38 39 40 41 42 43 44 45 46 47 48 49 50
000
AXUS43 KLBF 230010
MISLBF


WESTERN AND NORTH CENTRAL NEBRASKA HOURLY WEATHER ROUNDUP
NATIONAL WEATHER SERVICE NORTH PLATTE NE
700 PM CDT FRI MAY 22 2015

***STATIONS NOT REPORTING VARIABLES SUCH AS SKY/WEATHER OR
PRESSURE ARE PROVIDED BY THE NEBRASKA DEPARTMENT OF
ROADS...RAWS...AND APRS NETWORKS...AND ARE NOT UNDER
NATIONAL WEATHER SERVICE QUALITY CONTROL***

...OBSERVATIONS IN AND NEAR THE EASTERN PANHANDLE OF NEBRASKA...

CITY           SKY/WX    TMP DP  RH WIND       PRES   REMARKS
PINE RIDGE     CLOUDY    50  42  74 SE12      30.08F
CHADRON        CLOUDY    51  44  77 SE12      30.07S
ALLIANCE       CLOUDY    48  44  86 SE15      30.06R
SIDNEY         CLOUDY    47  45  93 SE17      30.05R
WHITECLAY        N/A     46  41  82 SE15        N/A
BIG SPRINGS      N/A     48  46  94 E15         N/A
$$

...OBSERVATIONS IN NORTH CENTRAL NEBRASKA...

CITY           SKY/WX    TMP DP  RH WIND       PRES   REMARKS
VALENTINE      CLOUDY    51  43  74 SE15      30.14F
THEDFORD       LGT RAIN  48  45  90 SE15      30.14S
AINSWORTH      CLOUDY    50  46  83 SE12      30.15F
O`NEILL        CLOUDY    52  48  86 E7        30.17F
ORD            LGT RAIN  50  45  83 E8        30.15F
BROKEN BOW     LGT RAIN  49  47  93 E8        30.14F FOG
BROWNLEE         N/A     52  43  71 SE18        N/A
VALENTINE NWR    N/A     49  42  78 SE14G22     N/A
SPRINGVIEW       N/A     50  45  84 E6          N/A
HALSEY           N/A     47  43  85 SE9G22      N/A
BREWSTER         N/A     50  46  87 SE12        N/A
ROSE             N/A     50  46  87 E14         N/A
NEWPORT          N/A     49  46  91 E9          N/A
SARGENT          N/A     49  46  90 E3          N/A
COMSTOCK         N/A     52  50  93 E9          N/A
EWING            N/A     52  48  87 E8          N/A
$$

...OBSERVATIONS IN SOUTHWEST NEBRASKA AND FAR NORTHEAST COLORADO...

CITY           SKY/WX    TMP DP  RH WIND       PRES   REMARKS
WRAY           CLOUDY   N/A N/A N/A E14       30.00S
IMPERIAL       CLOUDY    49  47  93 E16       30.04F
OGALLALA       LGT RAIN  47  46  96 E17       30.07F
NORTH PLATTE   LGT RAIN  47  45  93 E16G24    30.10F
MCCOOK         LGT RAIN  51  49  92 E14       30.07S FOG
LEXINGTON      LGT RAIN  51  49  95 SE13G22   30.12F
PAXTON           N/A     47  45  94 E14         N/A
GOTHENBURG       N/A     48  46  92 E8          N/A
CALLAWAY         N/A     48  47  96 E12         N/A
$$

...NORTH PLATTE AREA...

CITY           SKY/WX    TMP DP  RH WIND       PRES   REMARKS
AIRPORT        LGT RAIN  47  45  93 E16G24    30.10F
DOWNTOWN         N/A     47  45  93 E7G14       N/A
$$

...SOME WEATHER OBSERVATIONS FROM AROUND THE REGION...

CITY           SKY/WX    TMP DP  RH WIND       PRES   REMARKS
DENVER         PTSUNNY   56  45  66 NE14      29.99R
LARAMIE        CLOUDY    50  39  66 SE7       29.99R
CHEYENNE       CLOUDY    47  41  80 SE10      30.01S
SCOTTSBLUFF    CLOUDY    49  47  93 SE17      30.04S
RAPID CITY     CLOUDY    57  42  57 S16       30.07R
PIERRE         CLOUDY    64  40  41 S18       30.10S
WINNER         CLOUDY    57  41  55 S13       30.15F
SIOUX FALLS    CLOUDY    66  40  38 SW13G24   30.15S
OMAHA          PTSUNNY   67  43  41 E8        30.18F
GRAND ISLAND   LGT RAIN  54  47  77 SE7       30.16F
KANSAS CITY    CLOUDY    63  50  62 SE8       30.21F
WICHITA        CLOUDY    61  52  72 SE14      30.12F
HAYS           CLOUDY    55  50  82 SE12      30.09F
LIBERAL        PTSUNNY   63  55  77 SE17      30.03F
GOODLAND       CLOUDY    55  52  89 SE16      30.00R
$$



USA.gov is the U.S. government's official web portal to all federal, state and local government web resources and services.